{"data":{"norad_id":67783,"epoch":"2026-05-25T04:00:03.998880Z","epoch_age_seconds":54412,"freshness":"FRESH","line1":"1 67783U 26030V   26145.16671295 -.00000337  00000+0 -10858-4 0  9997","line2":"2 67783  51.8976 214.8489 0007579   4.4521  76.6627 14.87353135  5918","mean_motion":14.87353135,"eccentricity":0.0007579,"inclination_deg":51.8976,"raan_deg":214.8489,"arg_perigee_deg":4.4521,"mean_anomaly_deg":76.6627,"bstar":-1.0858e-5,"rev_number":591,"period_min":96.816281629043,"perigee_km":600.91609929799,"apogee_km":611.50297177655,"semimajor_km":6984.3465355373,"source":"CELESTRAK","updated_at":"2026-05-25T13:38:07.260880Z"}}